Weather History for Burns, OR

Change the Weather History Date:

Friday, June 21, 2013

  Actual Average Record
Temperature  
Mean Temperature 47 °F 60 °F  
Max Temperature 61 °F 77 °F 95 °F (2001)
Min Temperature 33 °F 43 °F 27 °F (1991)
Degree Days  
Heating Degree Days 18 6  
Month to date heating degree days 146 175  
Since 1 June heating degree days 146 175  
Since 1 July heating degree days 7378 7645  
Cooling Degree Days 0 1  
Month to date cooling degree days 18 7  
Year to date cooling degree days 19 10  
Since 1 June cooling degree days 18 7  
Moisture  
Dew Point 36 °F    
Average Humidity 70    
Maximum Humidity 92    
Minimum Humidity 47    
Precipitation  
Precipitation T in 0.02 in 0.47 in (2009)
Month to date precipitation 0.16 0.61  
Year to date precipitation 2.70 6.07  
Sea Level Pressure  
Sea Level Pressure 30.10 in    
Wind  
Wind Speed 8 mph (WNW)    
Max Wind Speed 20 mph    
Max Gust Speed 25 mph    
Visibility 10 miles    
Events Rain    
T = Trace of Precipitation, MM = Missing Value Source: NWS Daily Summary

Daily Weather History Graph

Daily Weather History Graph

Search for Another Location

Airport:

Trip Planner

Search our weather history database for the weather conditions in past years. The results will help you decide how hot, cold, wet, or windy it might be!

Date:

Astronomy

Jun. 21, 2013 Rise Set
Actual Time 5:14 AM PDT 8:40 PM PDT
Civil Twilight 4:38 AM PDT 9:16 PM PDT
Nautical Twilight 3:51 AM PDT 10:03 PM PDT
Astronomical Twilight 2:52 AM PDT 11:03 PM PDT
Moon 6:54 PM PDT (6/21) 3:37 AM PDT (6/21)
Length of Visible Light 16h 38m
Length of Day
15h 26m
Waxing Gibbous, 96% of the Moon is Illuminated
Jun 21
Waxing Gibbous
Jun 23
Full
Jun 29
Last Quarter
Jul 8
New
Jul 15
First Quarter

Hourly Weather History & Observations

Time (PDT) Temp. Windchill Dew Point Humidity Pressure Visibility Wind Dir Wind Speed Gust Speed Precip Events Conditions
12:53 AM 41.0 °F 38.0 °F 30.9 °F 67% 30.08 in 10.0 mi Variable 4.6 mph - 0.00 in   Clear
1:53 AM 39.9 °F 35.8 °F 30.9 °F 70% 30.07 in 10.0 mi WSW 5.8 mph - N/A   Clear
2:53 AM 37.9 °F 33.5 °F 32.0 °F 79% 30.08 in 10.0 mi West 5.8 mph - N/A   Clear
3:53 AM 35.1 °F 30.1 °F 30.9 °F 85% 30.09 in 10.0 mi West 5.8 mph - N/A   Clear
4:53 AM 36.0 °F 30.3 °F 33.1 °F 89% 30.09 in 10.0 mi WNW 6.9 mph - N/A   Clear
5:53 AM 33.1 °F - 30.0 °F 89% 30.10 in 10.0 mi Calm Calm - N/A   Clear
6:53 AM 42.1 °F - 36.0 °F 79% 30.09 in 10.0 mi Calm Calm - N/A   Clear
7:53 AM 46.0 °F - 37.0 °F 71% 30.09 in 10.0 mi Calm Calm - 0.00 in   Scattered Clouds
8:53 AM 52.0 °F - 39.0 °F 61% 30.10 in 10.0 mi WSW 4.6 mph - 0.00 in   Mostly Cloudy
9:53 AM 53.1 °F - 37.0 °F 55% 30.11 in 10.0 mi West 8.1 mph - N/A   Overcast
10:53 AM 54.0 °F - 37.9 °F 55% 30.11 in 10.0 mi South 6.9 mph - 0.00 in Rain Light Rain
11:53 AM 57.9 °F - 33.1 °F 39% 30.09 in 10.0 mi South 15.0 mph - 0.00 in   Overcast
12:53 PM 55.9 °F - 35.1 °F 45% 30.10 in 10.0 mi SW 11.5 mph - 0.00 in   Overcast
1:53 PM 57.0 °F - 39.0 °F 51% 30.10 in 10.0 mi WNW 9.2 mph - 0.00 in   Overcast
2:53 PM 55.9 °F - 39.0 °F 53% 30.11 in 10.0 mi WNW 16.1 mph 21.9 mph 0.00 in   Overcast
3:53 PM 59.0 °F - 39.0 °F 48% 30.11 in 10.0 mi NNW 13.8 mph - N/A   Overcast
4:53 PM 57.9 °F - 39.9 °F 51% 30.11 in 10.0 mi WNW 16.1 mph 20.7 mph N/A   Mostly Cloudy
5:53 PM 55.0 °F - 37.9 °F 53% 30.12 in 10.0 mi NW 12.7 mph - N/A   Overcast
6:53 PM 55.9 °F - 37.9 °F 51% 30.10 in 10.0 mi NW 12.7 mph - 0.00 in   Overcast
7:53 PM 53.1 °F - 39.9 °F 61% 30.11 in 10.0 mi North 11.5 mph - N/A   Clear
8:53 PM 46.9 °F - 37.0 °F 68% 30.11 in 10.0 mi NW 6.9 mph - N/A   Clear
9:53 PM 39.9 °F - 34.0 °F 79% 30.15 in 10.0 mi Calm Calm - N/A   Clear
10:53 PM 42.1 °F 39.2 °F 37.0 °F 82% 30.14 in 10.0 mi North 4.6 mph - N/A   Clear
11:53 PM 39.9 °F 37.8 °F 36.0 °F 86% 30.13 in 10.0 mi Variable 3.5 mph - N/A   Clear